Regional Weather Roundup
Issued by NWS

Home | Current Version | Previous Version | Text Only | Print | Product List | Glossary On
Versions: 1 2 3 4 5 6 7 8 9 10 11 12 13 14 15 16 17 18 19 20 21 22 23 24 25 26 27 28 29 30 31 32 33 34 35 36 37 38 39 40 41 42 43 44 45 46 47 48 49 50
000
ASUS43 KTOP 240759
RWRKS

WEATHER ROUNDUP FOR KANSAS
NATIONAL WEATHER SERVICE GOODLAND KS
300 AM CDT SUN SEP 24 2017

NOTE:  "FAIR" INDICATES FEW OR NO CLOUDS BELOW 12,000 FEET WITH NO
SIGNIFICANT WEATHER AND/OR OBSTRUCTIONS TO VISIBILITY.

KSZ001>006-013>018-027>032-041>047-240900-
NORTHWEST KANSAS

CITY           SKY/WX    TMP DP  RH WIND       PRES   REMARKS
GOODLAND       HVY RAIN  50  50 100 NW18G25   29.87S FOG
HAYS           CLOUDY    73  61  65 S16       29.86F
HILL CITY      CLOUDY    66  64  93 E3        29.87S
RUSSELL        PTCLDY    73  62  68 S15       29.86F
$$

KSZ061>065-074>080-084>089-240900-
SOUTHWEST KANSAS

CITY           SKY/WX    TMP DP  RH WIND       PRES   REMARKS
DODGE CITY     CLOUDY    73  60  63 SE20      29.88F
ELKHART          N/A     58  61 100 S9          N/A
GARDEN CITY    HVY RAIN  65  63  93 S15       29.89F FOG
GREAT BEND     PTCLDY    72  63  73 SE14      29.88F
LIBERAL        LGT RAIN  63  59  87 SW8       29.92R
$$

KSZ066>073-081>083-090>101-240900-
SOUTHEAST KANSAS

CITY           SKY/WX    TMP DP  RH WIND       PRES   REMARKS
CHANUTE        CLEAR     71  64  78 SE7       29.94S
COFFEYVILLE    CLEAR     72  65  78 SE7       29.93R
HUTCHINSON     CLEAR     74  65  73 SE12      29.89S
MEDICINE LODGE   N/A     72  63  73 SE7       29.88S
NEWTON         CLEAR     69  63  81 SE9       29.92F
PARSONS        CLEAR     73  64  73 SE5       29.95S
WICHITA INTL   CLEAR     73  66  78 SE10      29.90F
WICHITA JABRA  CLEAR     70  66  87 SE8       29.91F
WINFIELD       CLEAR     72  65  78 SE6       29.92S
$$

KSZ007>012-019>026-033>040-048>060-102>105-240900-
NORTHEAST KANSAS

CITY           SKY/WX    TMP DP  RH WIND       PRES   REMARKS
CONCORDIA      PTCLDY    71  64  78 S10       29.89R
EMPORIA        CLEAR     70  62  76 S7        29.93S
LAWRENCE       CLEAR     70  67  90 E7        29.93S
MANHATTAN      PTCLDY    74  63  68 S7        29.90F
OLATHE IND     CLEAR     72  66  81 SE7       29.95S
OLATHE EXE     CLEAR     71  68  90 SE6       29.95S
SALINA         CLEAR     75  64  68 SE10      29.88S
TOPEKA BILLARD CLEAR     69  67  93 CALM      29.93R
TOPEKA FORBES  CLEAR     70  66  87 SE6       29.93S
$$




USA.gov is the U.S. government's official web portal to all federal, state and local government web resources and services.